www.pogodaiklimat.ru

Погода и климат >> Архив погоды >> Ирландия >> Roches Point


ПОГОДА в Roches Point

  • Прогноз погоды в Roches Point
  • Монитор погоды в Roches Point
  • Климат города

АРХИВ ПОГОДЫ в Roches Point

Время (UTC), дата Ветер
(напр.,м/с)
 
Видим.   Явления Облачность Т
(С)
Тd
(С)
f
(%)
Тe
(С)
Тes
(С)
Комфортность P
(гПа)
Po
(гПа)
Тmin
(С)
Tmax
(С)
R
(мм)
R24
(мм)
S
(см)
22 13.09 ЮЗ 7 30 км н/о +12.1 +9.9 86 +9 +9 1022.1 1017.1
23 13.09 З 7 29 км н/о +12.1 +9.7 85 +9 +9 1021.7 1016.7
00 14.09 ЮЗ 6 29 км н/о +12.3 +10.6 89 +10 +10 1021.2 1016.3
02 14.09 З 6 28 км н/о +12.5 +10.5 88 +10 +10 1020.2 1015.2
01 14.09 ЮЗ 6 27 км н/о +12.5 +10.4 87 +10 +10 1020.8 1015.8
03 14.09 ЮЗ 7 27 км н/о +12.8 +10.7 87 +10 +10 1019.9 1014.9
04 14.09 ЮЗ 6 23 км н/о +12.7 +10.6 87 +10 +10 1019.6 1014.6
05 14.09 З 8 23 км н/о +12.8 +10.5 86 +10 +10 1019.0 1014.1
06 14.09 ЮЗ 6 25 км н/о +12.7 +10.7 88 +10 +10 1019.1 1014.1 +11.9
08 14.09 ЮЗ 8 23 км в посл. час морось {ливн. осадки} н/о +13.9 +11.3 84 +11 +11 1018.8 1013.9
07 14.09 ЮЗ 7 17 км н/о +13.2 +11.0 87 +11 +11 1019.1 1014.1
09 14.09 З 9 21 км в посл. час морось {ливн. осадки} н/о +14.5 +11.5 82 +12 +12 1019.1 1014.2
10 14.09 З 8 19 км н/о +15.4 +11.3 77 +13 +13 1019.3 1014.4
11 14.09 З 11 28 км н/о +15.8 +9.9 68 +14 +14 1019.7 1014.8
12 14.09 З 8 29 км {ливн. осадки, морось} н/о +16.2 +11.0 71 +15 +15 1019.6 1014.7 0.0
14 14.09 З 7 35 км н/о +17.4 +10.4 63 +16 +16 1019.8 1014.9
13 14.09 З 8 35 км н/о +17.4 +10.1 62 +16 +16 1019.7 1014.8
15 14.09 З 8 40 км н/о +16.4 +10.2 67 +15 +15 1019.9 1015.0
16 14.09 З 7 35 км н/о +16.2 +11.2 72 +15 +15 1020.2 1015.3
17 14.09 З 6 30 км н/о +17.5 +11.1 66 +17 +17 1020.3 1015.4
18 14.09 З 5 25 км н/о +16.1 +10.8 71 +15 +15 1020.5 1015.6 +18.4 0.0
20 14.09 З 7 22 км н/о +13.6 +10.7 83 +11 +11 1021.6 1016.6
19 14.09 З 7 23 км н/о +14.4 +10.4 77 +12 +12 1021.0 1016.1
21 14.09 З 6 20 км н/о +12.8 +10.4 85 +10 +10 1022.2 1017.3
22 14.09 ЮЗ 5 16 км н/о +12.6 +10.6 88 +10 +10 1022.1 1017.1
23 14.09 ЮЗ 3 13 км н/о +12.1 +10.7 91 +10 +10 1022.1 1017.1
00 15.09 ЮЗ 6 16 км н/о +12.7 +11.2 91 +10 +10 1022.1 1017.1
02 15.09 ЮЗ 5 14 км н/о +12.6 +11.1 91 +10 +10 1021.7 1016.7
01 15.09 ЮЗ 5 14 км н/о +12.4 +11.0 91 +10 +10 1021.9 1017.0
03 15.09 ЮЗ 5 14 км н/о +13.0 +11.7 92 +11 +11 1021.8 1016.9
04 15.09 ЮЗ 5 14 км н/о +13.4 +12.1 92 +11 +11 1021.8 1016.8
05 15.09 ЮЗ 5 18 км в посл. час морось н/о +13.3 +11.9 91 +11 +11 1021.8 1016.8
06 15.09 З 4 25 км {морось} н/о +13.3 +11.5 89 +12 +12 1021.9 1016.9 +12.0 0.0
08 15.09 ЮЗ 4 17 км н/о +13.8 +12.4 91 +12 +12 1022.2 1017.2
07 15.09 ЮЗ 3 16 км н/о +13.2 +12.0 92 +12 +12 1022.1 1017.2
09 15.09 ЮЗ 4 19 км н/о +14.8 +12.9 88 +14 +14 1022.2 1017.2
10 15.09 ЮЗ 5 19 км н/о +15.0 +13.2 89 +14 +14 1022.0 1017.1
11 15.09 Ю 5 24 км н/о +15.4 +13.4 88 +14 +14 1021.8 1016.9
12 15.09 Ю 7 23 км н/о +15.4 +13.2 87 +14 +14 1021.4 1016.5
14 15.09 Ю 7 30 км н/о +15.8 +12.5 81 +14 +14 1020.1 1015.2
13 15.09 Ю 7 29 км н/о +16.2 +12.9 81 +15 +15 1020.6 1015.7
15 15.09 Ю 8 30 км н/о +16.0 +12.6 80 +14 +14 1019.5 1014.6
16 15.09 Ю 8 23 км н/о +15.7 +13.0 84 +14 +14 1018.5 1013.5
17 15.09 Ю 10 23 км н/о +15.3 +12.7 84 +13 +13 1017.4 1012.5
18 15.09 Ю 11 7000 м слаб. ливневой дождь н/о +14.6 +12.8 89 +12 +12 1016.8 1011.9 +16.7 0.1
20 15.09 Ю 13 8000 м в посл. час дождь {ливн. осадки} н/о +14.5 +13.4 93 +11 +11 1015.1 1010.2
19 15.09 Ю 11 4400 м слаб. ливневой дождь н/о +14.4 +13.4 94 +11 +11 1015.8 1010.9
21 15.09 Ю 13 5000 м в посл. час дождь {ливн. осадки} н/о +14.6 +13.9 96 +11 +11 1014.8 1009.9
22 15.09 Ю 12 6000 м слаб. ливневой дождь н/о +14.9 +14.3 96 +12 +12 1014.2 1009.3
23 15.09 Ю 12 2400 м ливневой дождь н/о +15.4 +14.6 95 +13 +13 1013.2 1008.3
00 16.09 Ю 12 6000 м слаб. ливневой дождь н/о +15.6 +14.9 96 +13 +13 1012.6 1007.7 3
02 16.09 ЮЗ 13 2400 м слаб. ливневой дождь н/о +15.7 +15.3 97 +13 +13 1011.2 1006.4
01 16.09 ЮЗ 13 2600 м ливневой дождь н/о +15.7 +15.1 96 +13 +13 1012.0 1007.2
03 16.09 ЮЗ 9 2300 м слаб. ливневой дождь н/о +15.7 +15.3 97 +14 +14 1011.5 1006.6
04 16.09 ЮЗ 7 8000 м слаб. ливневой дождь н/о +15.5 +15.1 97 +14 +14 1011.4 1006.5
05 16.09 СЗ 3 17 км н/о +15.1 +14.3 95 +14 +14 1012.0 1007.1
06 16.09 СЗ 6 27 км {ливн. осадки} н/о +13.8 +12.0 89 +12 +12 1012.6 1007.6 +13.7 8
08 16.09 З 2 15 км н/о +13.6 +11.5 87 +13 +13 1013.7 1008.8
07 16.09 СЗ 4 25 км н/о +13.4 +11.5 88 +12 +12 1013.6 1008.6
09 16.09 З 2 23 км н/о +14.5 +11.5 82 +14 +14 1014.4 1009.5
10 16.09 З 3 30 км н/о +15.3 +11.5 78 +15 +15 1014.8 1009.9
11 16.09 З 3 30 км н/о +15.4 +10.4 72 +15 +15 1014.8 1009.9
12 16.09 ЮЗ 3 17 км н/о +15.9 +12.3 79 +15 +15 1014.9 1010.0
14 16.09 Ю 5 20 км н/о +16.3 +12.8 80 +15 +15 1014.5 1009.6
13 16.09 З 3 30 км н/о +17.4 +11.2 67 +17 +17 1014.8 1009.9
15 16.09 ЮЗ 7 26 км н/о +16.4 +12.5 78 +15 +15 1014.4 1009.5
16 16.09 ЮЗ 7 24 км н/о +17.0 +12.5 75 +16 +16 1014.3 1009.4
17 16.09 ЮЗ 8 27 км н/о +16.8 +11.7 72 +15 +15 1014.5 1009.6
18 16.09 ЮЗ 6 26 км н/о +14.9 +11.7 81 +13 +13 1014.5 1009.6 +17.7
20 16.09 З 5 30 км н/о +13.6 +10.9 84 +12 +12 1015.2 1010.3
19 16.09 ЮЗ 4 29 км н/о +13.9 +11.4 85 +12 +12 1015.1 1010.2
21 16.09 ЮЗ 4 26 км н/о +12.9 +11.1 89 +11 +11 1015.5 1010.5
22 16.09 З 5 30 км н/о +12.9 +11.4 91 +11 +11 1015.0 1010.1
23 16.09 ЮЗ 4 23 км н/о +12.7 +11.3 91 +11 +11 1014.8 1009.9
00 17.09 ЮЗ 3 20 км н/о +12.5 +11.4 93 +11 +11 1014.4 1009.4
02 17.09 Ю 2 18 км н/о +12.8 +12.1 96 +12 +12 1012.7 1007.8
01 17.09 ЮВ 2 14 км н/о +12.3 +11.6 95 +11 +11 1013.4 1008.5
03 17.09 Ю 6 35 км н/о +13.8 +11.6 87 +12 +12 1011.9 1007.0
04 17.09 Ю 7 29 км н/о +14.0 +11.7 86 +12 +12 1011.0 1006.0
05 17.09 ЮВ 6 29 км н/о +14.0 +11.8 87 +12 +12 1009.8 1004.9
06 17.09 ЮВ 6 4200 м сильн. морось н/о +13.4 +12.7 96 +11 +11 1009.0 1004.1 +12.0 0.6
08 17.09 Ю 11 700 м туман ?/? +15.6 +15.2 97 +13 +13 1007.1 1002.2
07 17.09 ЮВ 9 2800 м слаб. дождь ?/? +14.6 +14.2 97 +12 +12 1007.9 1003.0
09 17.09 Ю 10 6000 м в посл. час туман {дождь} н/о +16.1 +15.7 97 +14 +14 1006.5 1001.7
10 17.09 Ю 10 7000 м дымка н/о +16.2 +15.5 96 +14 +14 1005.8 1001.0
11 17.09 Ю 11 8000 м дымка н/о +16.9 +16.0 94 +15 +15 1004.9 1000.1
12 17.09 Ю 11 9000 м дымка {дождь, туман} н/о +16.6 +15.6 94 +15 +15 1004.6 999.7 1
14 17.09 Ю 11 9000 м дымка н/о +17.6 +16.1 91 +16 +16 1002.7 997.9
13 17.09 Ю 11 9000 м дымка н/о +17.6 +16.2 91 +16 +16 1003.6 998.8
15 17.09 Ю 11 9000 м дымка н/о +16.7 +15.4 92 +15 +15 1001.6 996.8
16 17.09 ЮВ 10 9000 м дымка н/о +16.3 +15.0 92 +14 +14 1000.6 995.8
17 17.09 ЮВ 11 5000 м слаб. ливневой дождь н/о +16.0 +15.2 95 +14 +14 999.2 994.4
18 17.09 ЮВ 10 6000 м дымка {ливн. осадки} н/о +16.2 +15.1 93 +14 +14 997.9 993.1 +17.8 1
20 17.09 ЮВ 11 3000 м слаб. ливневой дождь н/о +16.0 +15.5 97 +14 +14 994.8 990.0
19 17.09 ЮВ 10 3800 м слаб. дождь н/о +16.0 +15.4 96 +14 +14 996.4 991.6
21 17.09 ЮВ 11 1900 м слаб. дождь {ливн. осадки} н/о +16.0 +15.6 97 +14 +14 993.3 988.5
22 17.09 ЮВ 8 900 м сильн. дождь ?/? +15.9 +15.6 98 +14 +14 992.2 987.4
23 17.09 ЮВ 5 1000 м слаб. морось {дождь} ?/? +15.8 +15.5 98 +15 +15 991.2 986.4
00 18.09 СЗ 3 200 м туман {ливн. осадки, дождь} ?/? +15.7 +15.4 98 +15 +15 991.7 986.9 13
02 18.09 З 7 13 км н/о +16.5 +15.8 96 +15 +15 994.8 990.0
01 18.09 З 6 14 км в посл. час туман н/о +16.2 +15.8 97 +15 +15 993.3 988.5
03 18.09 З 7 10 км {туман} н/о +16.5 +15.5 94 +15 +15 996.0 991.2
04 18.09 З 9 5000 м морось н/о +15.2 +14.1 93 +13 +13 997.9 993.1
05 18.09 З 9 17 км в посл. час морось н/о +13.3 +11.9 91 +10 +10 999.7 994.8
06 18.09 З 7 19 км {морось, туман} н/о +12.5 +10.6 88 +10 +10 1000.8 995.9 +12.5 13
08 18.09 Ю 6 5000 м слаб. ливневой дождь н/о +13.8 +12.8 94 +12 +12 1001.4 996.5
07 18.09 ЮЗ 4 13 км н/о +13.0 +11.1 88 +11 +11 1001.7 996.9
09 18.09 ЮЗ 12 6000 м слаб. ливневой дождь н/о +15.7 +14.6 93 +13 +13 1000.6 995.8
10 18.09 ЮЗ 11 8000 м в посл. час морось н/о +16.4 +14.4 88 +14 +14 1001.7 996.8
11 18.09 ЮЗ 12
{19}
7000 м дымка н/о +16.7 +14.8 89 +15 +15 1001.8 997.0
12 18.09 ЮЗ 12 7000 м дымка {ливн. осадки, морось} н/о +16.8 +14.9 89 +15 +15 1002.0 997.2 0.6
14 18.09 ЮЗ 11 11 км н/о +17.0 +13.4 79 +15 +15 1002.7 997.8
13 18.09 ЮЗ 10
{18}
8000 м в посл. час морось {ливн. осадки} н/о +17.0 +14.8 87 +15 +15 1002.3 997.5
15 18.09 ЮЗ 12 11 км {ливн. осадки} н/о +16.1 +13.0 82 +14 +14 1003.0 998.2
16 18.09 ЮЗ 12 12 км н/о +16.1 +13.1 82 +14 +14 1003.3 998.5
17 18.09 ЮЗ 10 11 км н/о +15.8 +13.0 83 +14 +14 1003.5 998.7
18 18.09 ЮЗ 10 12 км {ливн. осадки} н/о +15.5 +13.2 86 +13 +13 1003.8 999.0 +17.2 0.6
20 18.09 ЮЗ 10 15 км н/о +14.8 +12.3 85 +12 +12 1004.8 1000.0
19 18.09 ЮЗ 10 12 км н/о +14.8 +12.4 86 +12 +12 1004.5 999.6
21 18.09 ЮЗ 9 16 км н/о +14.7 +11.9 83 +12 +12 1004.8 999.9
22 18.09 ЮЗ 10 12 км н/о +14.7 +12.6 87 +12 +12 1005.0 1000.1
23 18.09 ЮЗ 11 10 км н/о +14.9 +13.2 90 +12 +12 1004.4 999.5
00 19.09 ЮЗ 11 10 км н/о +14.9 +12.7 87 +12 +12 1004.7 999.8
02 19.09 Ю 9 9000 м дымка н/о +14.7 +13.4 92 +12 +12 1002.8 997.9
01 19.09 ЮЗ 10 9000 м дымка н/о +14.7 +13.2 91 +12 +12 1004.0 999.1
03 19.09 Ю 11 10 км н/о +14.7 +13.0 90 +12 +12 1001.6 996.7
04 19.09 Ю 12 11 км н/о +14.7 +12.6 87 +12 +12 1000.1 995.2
05 19.09 Ю 17
{22}
9000 м слаб. морось {дымка} н/о +15.2 +12.7 85 +12 +12 998.9 994.1
06 19.09 Ю 18
{23}
6000 м слаб. ливневой дождь {дымка} н/о +15.3 +12.9 86 +12 +12 997.6 992.8 +14.5 0.1
08 19.09 ЮЗ 17
{29}
7000 м в посл. час дождь {ливн. осадки} н/о +14.7 +10.5 76 +11 +11 999.7 994.8
07 19.09 Ю 21
{27}
5000 м слаб. ливневой дождь н/о +15.8 +13.4 86 +13 +13 996.5 991.7
09 19.09 ЮЗ 14
{25}
11 км {ливн. осадки} н/о +13.6 +7.2 65 +10 +10 1002.0 997.2
10 19.09 З 13
{21}
21 км н/о +13.7 +7.2 65 +10 +10 1003.8 999.0
11 19.09 З 14
{21}
17 км н/о +13.9 +6.1 59 +11 +11 1005.2 1000.3
12 19.09 З 14
{20}
18 км {ливн. осадки} н/о +13.6 +6.9 64 +10 +10 1006.3 1001.4 0.5
14 19.09 ЮЗ 9
{19}
17 км н/о +13.9 +7.9 67 +11 +11 1008.4 1003.5
13 19.09 З 12
{18}
14 км н/о +13.7 +7.2 65 +11 +11 1007.7 1002.8
15 19.09 ЮЗ 11 19 км н/о +13.6 +6.9 64 +11 +11 1008.7 1003.8
16 19.09 ЮЗ 11 27 км н/о +13.7 +7.2 65 +11 +11 1009.2 1004.3
17 19.09 ЮЗ 9
{17}
30 км н/о +12.9 +7.1 68 +10 +10 1009.9 1005.0
18 19.09 ЮЗ 8 23 км н/о +12.9 +7.8 71 +10 +10 1010.1 1005.2 +16.2 0.5
20 19.09 ЮЗ 6 30 км н/о +11.9 +7.7 75 +9 +9 1010.8 1005.8
19 19.09 ЮЗ 8 22 км в посл. час морось н/о +12.3 +8.5 78 +9 +9 1010.4 1005.5
21 19.09 ЮЗ 7 30 км {морось} н/о +11.9 +6.9 71 +9 +9 1010.9 1005.9
22 19.09 ЮЗ 6 25 км н/о +11.9 +7.8 76 +9 +9 1011.2 1006.2
23 19.09 ЮЗ 5 17 км слаб. ливневой дождь н/о +11.9 +8.7 81 +9 +9 1011.0 1006.1
00 20.09 ЮЗ 5 27 км в посл. час морось {ливн. осадки} н/о +11.4 +7.3 76 +9 +9 1010.2 1005.2 0.0
02 20.09 ЮЗ 4 30 км н/о +11.2 +7.5 78 +9 +9 1010.0 1005.0
01 20.09 ЮЗ 4 17 км н/о +11.3 +7.3 76 +9 +9 1010.0 1005.1
03 20.09 ЮЗ 4 27 км н/о +11.2 +8.1 81 +9 +9 1009.8 1004.9
04 20.09 ЮЗ 3 30 км в посл. час морось н/о +11.1 +8.1 82 +9 +9 1009.4 1004.5
05 20.09 ЮЗ 2 30 км н/о +11.0 +7.6 80 +10 +10 1009.1 1004.2
06 20.09 Ю 2 24 км морось н/о +11.0 +7.7 80 +10 +10 1008.7 1003.7 +10.9 0.0
08 20.09 СВ 2 17 км слаб. дождь н/о +10.4 +8.6 89 +9 +9 1007.4 1002.4
07 20.09 ЮВ 1 15 км слаб. дождь н/о +11.0 +8.1 82 +11 +11 1008.2 1003.2
09 20.09 В 3 11 км слаб. дождь н/о +10.2 +8.9 92 +8 +8 1006.4 1001.5
10 20.09 СВ 3 10 км слаб. дождь н/о +10.3 +9.4 94 +8 +8 1005.3 1000.4
11 20.09 СВ 4 6000 м слаб. дождь н/о +10.5 +9.7 95 +8 +8 1002.7 997.8
12 20.09 С 5 5000 м дождь н/о +10.7 +10.0 95 +8 +8 1001.7 996.8 13
14 20.09 СВ 5 16 км слаб. морось {дождь} н/о +11.3 +10.4 94 +8 +8 998.5 993.7
13 20.09 СВ 5 6000 м сильн. морось {дождь} н/о +10.7 +10.0 95 +8 +8 999.7 994.8
15 20.09 СВ 3 30 км {дождь, морось} н/о +11.5 +10.4 93 +10 +10 997.9 993.0
16 20.09 С 4 5000 м дождь н/о +11.2 +10.4 95 +9 +9 996.4 991.6
17 20.09 СЗ 8 8000 м морось {дождь} н/о +10.7 +9.9 95 +7 +7 995.5 990.6
18 20.09 С 11 3500 м слаб. дождь {морось} н/о +9.4 +8.5 94 +4 +4 995.9 991.0 +11.6 23
20 20.09 СЗ 10 50 км н/о +9.2 +7.2 87 +4 +4 998.9 994.0
19 20.09 С 11
{18}
30 км слаб. дождь н/о +9.3 +8.0 92 +4 +4 997.0 992.0
21 20.09 СЗ 11 26 км морось {дождь} н/о +8.8 +7.3 90 +4 +4 1000.7 995.7

 

Местоположение метеостанции Roches Point (Ирландия): широта 51.80 долгота -8.25 высота над уровнем моря 41 м.

В архиве по умолчанию представлена погода в Roches Point за последнюю неделю. Архивные данные за месяц целиком и за предыдущие месяцы, начиная с января 2011 года, Вы можете получить, выбрав интересующий диапазон дат из раскрывающегося списка и нажав кнопку "Ввод!".


*Определитесь, кто Вы:
робот инопланетянин человек

Внимание! Время в таблицах - всемирное. Для получения местного времени необходимо прибавить поправку, которая в Roches Point равна 0 ч.

Смотрите также архив погоды в соседних городах и на ближайших метеорологических станциях:

Погода в Cork Airport (Ирландия) (17 км)
Погода в Sherkin Island (Ирландия) (89 км)
Погода в Shannon Airport (Ирландия) (109 км)
Погода в Johnstown Castle (Ирландия) (132 км)
Погода в Gurteen (Ирландия) (138 км)
Погода в Valentia Observatory (Ирландия) (138 км)
Погода в Oak Park, Carlow (Ирландия) (149 км)
Погода в Mace Head (Ирландия) (203 км)
Погода в Mullingar (Ирландия) (203 км)
Погода в Casement Aerodrome (Ирландия) (208 км)

Пояснения к столбцам:

Ветер - указаны скорость ветра в м/с - средняя за 10 мин, порывы в срок и между сроками (в фигурных скобках) и направление, откуда дует ветер: С - северный, СВ - северо-восточный, В - восточный, ЮВ - юго-восточный, Ю - южный, ЮЗ - юго-западный, З - западный, СЗ - северо-западный.
Видимость - горизонтальная дальность видимости в метрах или километрах. При видимости от 1 до 10 км при отсутствии осадков обычно наблюдается дымка, при ухудшении видимости до 1 км и менее - туман. В сухую погоду видимость может ухудшаться дымом, пылью или мглою.
Явления - указаны атмосферные явления, наблюдавшиеся в срок или в последний час перед сроком; фигурными скобками обозначены явления, наблюдавшиеся между сроками (за 1-3 часа до срока); квадратными скобками обозначены град или гололедные отложения с указанием их диаметра в мм.
Облачность - указаны через наклонную черту общая и нижняя облачность в баллах и высота нижней границы облаков в метрах; квадратными скобками обозначены формы облаков: Ci - перистые, Cs - перисто-слоистые, Cc - перисто-кучевые, Ac - высококучевые, As - высокослоистые, Sc - слоисто-кучевые, Ns - слоисто-дождевые, Cu - кучевые, Cb - кучево-дождевые. Подробнее классификацию облаков см. в Атласе облаков (PDF).
T - Температура воздуха - температура, измеренная на высоте 2 м над землей.
Td - Температура точки росы - температура, при понижении до которой содержащийся в воздухе водяной пар достигнет насыщения.
f - Относительная влажность воздуха - влажноcть воздуха, измеренная на высоте 2 м над землей.
Te - Эффективная температура - температура, которую ощущает одетый по сезону человек в тени. Характеристика душности погоды. При расчете учитывается влияние влажности воздуха и скорости ветра на теплоощущения человека.
Tes - Эффективная температура на солнце - температура, которую ощущает человек, с поправкой на солнечный нагрев. Характеристика знойности погоды. Зависит от высоты солнца над горизонтом, облачности и скорости ветра. Ночью, в пасмурную погоду, а также при ветре 12 м/с и более поправка равна нулю.
P - Атмосферное давление - приведенное к уровню моря атмосферное давление.
Po - Атмосферное давление - измеренное на уровне метеостанции атмосферное давление.
Tmin - Минимальная температура - минимум температуры воздуха на высоте 2 м над землей.
Tmax - Максимальная температура - максимум температуры воздуха на высоте 2 м над землей.
R - Количество осадков - Количество выпавших осадков за период времени, мм. При наведении курсора мыши на число - период времени, за который выпало указанное количество осадков.
R24 - Количество осадков - Количество выпавших осадков за 24 часа, мм.
S - Снежный покров - Высота снежного покрова, см. При наведении курсора мыши на число - состояние снежного покрова и степень покрытия местности в баллах.